Regional Weather Roundup
Issued by NWS

Home | Current Version | Previous Version | Text Only | Print | Product List | Glossary Off
Versions: 1 2 3 4 5 6 7 8 9 10 11 12 13 14 15 16 17 18 19 20 21 22 23 24 25 26 27 28 29 30 31 32 33 34 35 36 37 38 39 40 41 42 43 44 45 46 47 48 49 50

000
ASUS43 KDTX 190410
RWRMI
MICHIGAN HOURLY REGIONAL WEATHER ROUNDUP
NATIONAL WEATHER SERVICE DETROIT/PONTIAC MI
1100 PM EST SUN FEB 18 2018

NOTE: "FAIR" INDICATES FEW OR NO CLOUDS BELOW 12,000 FEET WITH NO
SIGNIFICANT WEATHER AND/OR OBSTRUCTION TO VISIBILITY.

MIZ047>049-052>055-059>063-066>070-074>076-081>083-190500-
SOUTHEAST LOWER MICHIGAN

CITY           SKY/WX    TMP DP  RH WIND       PRES   REMARKS
ADRIAN         FAIR      33  27  78 S8        30.11F WCI  26
ALMA           FAIR      34  30  84 S13       30.02F WCI  25
ANN ARBOR      FAIR      31  27  85 E8        30.10F WCI  23
BAD AXE        FAIR      30  26  85 S18       30.07F WCI  18
CARO           FAIR      33  28  81 SE18      30.05F WCI  21
DETROIT CITY   FAIR      31  26  82 S8        30.14F WCI  23
DETROIT        MOCLDY    34  27  75 SE7       30.13F WCI  28
FLINT          FAIR      33  27  78 S14       30.07F WCI  23
GROSSE ILE     FAIR      33  28  84 MISG      30.13F
HILLSDALE      FAIR      32  28  86 SE12      30.03F WCI  23
HOWELL         FAIR      32  29  87 SE14      30.05F WCI  22

CITY           SKY/WX    TMP DP  RH WIND       PRES   REMARKS
JACKSON        FAIR      34  29  82 SE16G23   30.04F WCI  24
LAMBERTVILLE   FAIR      36  28  74 SE8       30.11F WCI  29
LANSING        FAIR      34  28  79 S20G25    30.01F WCI  23
LAPEER         FAIR      32  27  80 S8        30.10F WCI  25
MASON          FAIR      35  27  73 S17       30.03F WCI  25
MONROE         FAIR      33  28  82 SE7       30.12F WCI  27
MT. CLEMENS    CLOUDY    29  29 100 SE10      30.12F WCI  19
PONTIAC        CLOUDY    32  27  81 SE13      30.09F WCI  22
PORT HOPE        N/A     31  26  82 SE13      30.05F WCI  21
PORT HURON     FAIR      30  25  80 S8        30.14F WCI  23
TRI CITIES     FAIR      34  27  75 S17G24    30.03F WCI  23
MIDLAND        FAIR      33  28  80 S9        30.02F WCI  25
TROY           FAIR      33  28  84 SE7       30.14F WCI  26
SAGINAW HB     FAIR      34  28  80 S15G22    30.05F WCI  24
$$
MIZ043>046-050>051-056>058-064>065-071>073-077>080-190500-
SOUTHWEST LOWER MICHIGAN

CITY           SKY/WX    TMP DP  RH WIND       PRES   REMARKS
BATTLE CREEK   FAIR      36  29  75 S17G30    30.00F WCI  26
BENTON HARBOR  FAIR      38  29  70 SE10      29.96F WCI  31
BIG RAPIDS     FAIR      32  25  76 MISG      29.95F
COLDWATER      FAIR      36  30  80 S12G20    30.03F WCI  27
FREMONT        FAIR      34  23  64 S9        29.96F WCI  26
HOLLAND        FAIR      37  29  72 S14G22    29.97F WCI  28
GRAND RAPIDS   CLOUDY    36  28  73 S12       29.99S WCI  28
IONIA          FAIR      34  29  81 S14G20    30.00S WCI  25
KALAMAZOO      FAIR      37  29  72 S9G22     30.01F WCI  30
LUDINGTON      FAIR      36  25  65 S14G24    29.90S WCI  27
MARSHALL       FAIR      35  29  80 S12G18    30.01F WCI  26
MOUNT PLEASANT FAIR      34  27  77 S10G18    29.99F WCI  26
MUSKEGON       FAIR      36  27  69 SE10      29.96F WCI  28
SOUTH HAVEN    FAIR      38  30  71 SE12G18   29.97F WCI  31
$$
MIZ016>042-190500-
NORTHERN LOWER MICHIGAN

CITY           SKY/WX    TMP DP  RH WIND       PRES   REMARKS
ALPENA         FAIR      34  23  64 S20G28    29.97F WCI  23
BEAVER ISLAND  CLOUDY    36  23  59 S8        29.92S WCI  30
BELLAIRE       CLOUDY    37  21  53 S10       29.93R WCI  30
CADILLAC       FAIR      31  22  70 S12G17    29.91S WCI  22
CHARLEVOIX     CLOUDY    37  19  47 S12       29.95R WCI  30
FRANKFORT      CLOUDY    39  20  46 S12G20    29.92R WCI  31
GAYLORD        CLOUDY    33  18  53 S12G23    29.91R WCI  24
GRAYLING       CLOUDY    32  22  67 S14G23    29.92S WCI  22
HARBOR SPRINGS CLOUDY    36  19  48 SW5       29.93R WCI  32
HOUGHTON LAKE  FAIR      31  24  75 S13G22    29.95F WCI  21
MANISTEE       FAIR      35  22  58 VRB6G16   29.92R WCI  30
OSCODA         FAIR      31  24  76 S12G18    30.02F WCI  22
PELLSTON       CLOUDY    38  18  44 S9        29.93R WCI  31
ROGERS CITY    FAIR      34  23  64 S9G16     29.96R WCI  26
TRAVERSE CITY  MOCLDY    38  19  46 SW7       29.92R WCI  33
$$
MIZ007>008-015-190500-
EASTERN UPPER MICHIGAN

CITY           SKY/WX    TMP DP  RH WIND       PRES   REMARKS
KINROSS        FAIR      31  25  78 SE14      29.93F WCI  21
MACKINAC ISLAN FAIR      34  21  57 S6        29.93S WCI  29
NEWBERRY       CLOUDY    32  24  71 S7        29.89R WCI  26
S. S. MARIE    CLOUDY    33  25  72 SE12      29.94S WCI  24
MUNISING         N/A     35  28  75 S18G28    29.83F WCI  24
$$
MIZ004>006-011>014-085-190500-
CENTRAL UPPER MICHIGAN

CITY           SKY/WX    TMP DP  RH WIND       PRES   REMARKS
MANISTIQUE     CLOUDY    34  31  90 S9        29.89S WCI  26
ESCANABA       CLOUDY    32  28  85 S12       29.87S WCI  23
MENOMINEE      CLOUDY    33  27  78 S9        29.88S WCI  25
SAWYER-GWINN   CLOUDY    30  24  79 S16       29.81R WCI  19
$$
MIZ001>003-009>011-084-190500-
WESTERN UPPER MICHIGAN

CITY           SKY/WX    TMP DP  RH WIND       PRES   REMARKS
IRON MOUNTAIN  CLOUDY    30  24  78 SE6       29.80S WCI  24
HOUGHTON       LGT SNOW  28  24  85 CALM      29.77R VSB 1
COPPER HARBOR    N/A     27  25  92 CALM      29.79S
IRONWOOD       FLURRIES  27  25  92 N5        29.77R WCI  22
$$

ABBREVIATIONS USED IN REMARKS
   TC - TEMPERATURE IN CELSIUS
  WCI - WIND CHILL INDEX
   HX - HEAT INDEX
  VSB - VISIBILITY





USA.gov is the U.S. government's official web portal to all federal, state and local government web resources and services.